Weather History for KCFS - October, 2013

Change the Weather History Date:

Wednesday, October 16, 2013

  Actual Average (KMBS) Record (KMBS)
Temperature  
Mean Temperature 56 °F 50 °F  
Max Temperature 61 °F 59 °F 73 °F (1996)
Min Temperature 50 °F 40 °F 30 °F (2002)
Degree Days  
Heating Degree Days 10    
Month to date heating degree days  
Since 1 July heating degree days  
Cooling Degree Days 0    
Month to date cooling degree days  
Year to date cooling degree days  
Growing Degree Days 6 (Base 50)    
Moisture  
Dew Point 51 °F    
Average Humidity 85    
Maximum Humidity 98    
Minimum Humidity 65    
Precipitation  
Precipitation 0.00 in 0.07 in 0.49 in (2001)
Month to date precipitation 1.42  
Year to date precipitation 25.77  
Snow  
Snow 0.00 in - - ()
Month to date snowfall  
Since 1 July snowfall  
Since 1 September snowfall  
Snow Depth -    
Sea Level Pressure  
Sea Level Pressure 29.80 in    
Wind  
Wind Speed 9 mph (SW)    
Max Wind Speed 17 mph    
Max Gust Speed 25 mph    
Visibility 9 miles    
Events Rain    
T = Trace of Precipitation, MM = Missing Value Source: NWS Daily Summary

Daily Weather History Graph

Daily Weather History Graph

Search for Another Location

Airport or City:

Trip Planner

Search our weather history database for the weather conditions in past years. The results will help you decide how hot, cold, wet, or windy it might be!

Date:

Astronomy

Oct. 16, 2013 Rise Set
Actual Time 7:49 AM EDT 6:48 PM EDT
Civil Twilight 7:20 AM EDT 7:17 PM EDT
Nautical Twilight 6:47 AM EDT 7:50 PM EDT
Astronomical Twilight 6:14 AM EDT 8:23 PM EDT
Moon 5:30 PM EDT (10/16) 5:12 AM EDT (10/16)
Length of Visible Light 11h 56m
Length of Day
10h 59m
Waxing Gibbous, 94% of the Moon is Illuminated
Oct 16
Waxing Gibbous
Oct 18
Full
Oct 26
Last Quarter
Nov 3
New
Nov 10
First Quarter

Hourly Weather History & Observations

Time (EDT) Temp. Dew Point Humidity Pressure Visibility Wind Dir Wind Speed Gust Speed Precip Events Conditions
12:15 AM 61.7 °F 60.8 °F 97% 29.79 in 5.0 mi SSW 11.5 mph 18.4 mph N/A   Overcast
12:35 AM 61.7 °F 60.4 °F 96% 29.79 in 5.0 mi SSW 8.1 mph - N/A   Overcast
12:54 AM 61.7 °F 60.4 °F 96% 29.79 in 5.0 mi SSW 8.1 mph - N/A   Overcast
1:15 AM 61.0 °F 59.9 °F 96% 29.78 in 5.0 mi SW 8.1 mph - N/A   Mostly Cloudy
1:34 AM 60.8 °F 59.5 °F 96% 29.78 in 4.0 mi SW 5.8 mph - N/A   Mostly Cloudy
1:55 AM 61.0 °F 60.1 °F 97% 29.79 in 5.0 mi SW 5.8 mph - N/A   Overcast
2:14 AM 60.4 °F 59.5 °F 97% 29.79 in 4.0 mi SSW 5.8 mph - N/A   Mostly Cloudy
2:35 AM 59.7 °F 59.0 °F 97% 29.79 in 3.0 mi SSW 4.6 mph - N/A   Overcast
2:55 AM 60.4 °F 59.9 °F 98% 29.79 in 4.0 mi SSW 8.1 mph - N/A   Overcast
3:14 AM 60.1 °F 59.4 °F 97% 29.78 in 5.0 mi SSW 6.9 mph - N/A   Mostly Cloudy
3:35 AM 59.9 °F 59.0 °F 97% 29.78 in 5.0 mi South 8.1 mph - N/A   Scattered Clouds
3:55 AM 59.4 °F 58.6 °F 97% 29.77 in 5.0 mi SSW 8.1 mph - N/A   Scattered Clouds
4:14 AM 59.4 °F 58.5 °F 97% 29.78 in 5.0 mi SSW 5.8 mph - N/A   Scattered Clouds
4:35 AM 59.2 °F 58.5 °F 97% 29.77 in 5.0 mi SW 6.9 mph - N/A   Mostly Cloudy
4:55 AM 59.9 °F 59.0 °F 97% 29.78 in 7.0 mi SW 10.4 mph - N/A   Overcast
5:14 AM 58.8 °F 57.4 °F 95% 29.78 in 7.0 mi SW 10.4 mph 16.1 mph N/A   Overcast
5:35 AM 57.7 °F 54.5 °F 89% 29.78 in 10.0 mi SW 11.5 mph - N/A   Overcast
5:54 AM 55.9 °F 52.2 °F 87% 29.79 in 10.0 mi SW 10.4 mph - N/A   Overcast
6:15 AM 54.0 °F 50.4 °F 88% 29.79 in 10.0 mi SW 6.9 mph - N/A   Mostly Cloudy
6:35 AM 52.7 °F 48.7 °F 86% 29.79 in 10.0 mi SW 5.8 mph - N/A   Scattered Clouds
6:54 AM 52.7 °F 49.3 °F 88% 29.80 in 10.0 mi SSW 3.5 mph - N/A   Mostly Cloudy
7:15 AM 51.8 °F 49.1 °F 90% 29.80 in 10.0 mi SSW 3.5 mph - N/A   Overcast
7:35 AM 50.9 °F 48.4 °F 91% 29.79 in 10.0 mi SSW 4.6 mph - N/A   Mostly Cloudy
7:54 AM 50.2 °F 48.4 °F 94% 29.79 in 10.0 mi SW 4.6 mph - N/A   Mostly Cloudy
8:15 AM 50.5 °F 48.9 °F 94% 29.79 in 10.0 mi SSW 5.8 mph - N/A   Scattered Clouds
8:35 AM 51.8 °F 49.6 °F 92% 29.80 in 10.0 mi SW 6.9 mph - N/A   Clear
8:54 AM 53.6 °F 50.0 °F 88% 29.81 in 10.0 mi SW 9.2 mph - N/A   Mostly Cloudy
9:15 AM 53.4 °F 49.3 °F 86% 29.80 in 10.0 mi SW 11.5 mph - N/A   Mostly Cloudy
9:35 AM 54.5 °F 48.9 °F 81% 29.80 in 10.0 mi SW 10.4 mph - N/A   Scattered Clouds
9:54 AM 55.4 °F 47.8 °F 76% 29.80 in 10.0 mi SW 11.5 mph 18.4 mph N/A   Scattered Clouds
10:15 AM 56.1 °F 47.5 °F 73% 29.80 in 10.0 mi SW 13.8 mph 24.2 mph N/A   Clear
10:35 AM 57.2 °F 47.1 °F 69% 29.80 in 10.0 mi SW 15.0 mph 18.4 mph N/A   Scattered Clouds
10:55 AM 56.3 °F 46.6 °F 70% 29.80 in 10.0 mi SW 10.4 mph 24.2 mph N/A   Mostly Cloudy
11:15 AM 55.4 °F 45.1 °F 68% 29.80 in 10.0 mi WSW 17.3 mph 25.3 mph N/A   Overcast
11:34 AM 55.6 °F 45.7 °F 69% 29.80 in 10.0 mi WSW 16.1 mph 21.9 mph N/A   Overcast
11:55 AM 58.1 °F 46.4 °F 65% 29.80 in 10.0 mi SW 17.3 mph 23.0 mph N/A   Mostly Cloudy
12:15 PM 57.2 °F 45.9 °F 66% 29.80 in 10.0 mi SW 16.1 mph 20.7 mph N/A   Mostly Cloudy
12:34 PM 57.6 °F 46.0 °F 65% 29.80 in 10.0 mi SW 15.0 mph 24.2 mph N/A   Overcast
12:55 PM 57.2 °F 46.4 °F 67% 29.80 in 10.0 mi WSW 13.8 mph 19.6 mph N/A   Overcast
1:14 PM 55.9 °F 46.4 °F 70% 29.81 in 10.0 mi SW 13.8 mph 18.4 mph N/A   Overcast
1:35 PM 56.3 °F 46.9 °F 71% 29.80 in 10.0 mi SW 10.4 mph - N/A   Overcast
1:55 PM 55.9 °F 46.6 °F 71% 29.80 in 10.0 mi SW 13.8 mph - N/A   Overcast
2:14 PM 55.4 °F 46.4 °F 72% 29.80 in 10.0 mi SW 15.0 mph 20.7 mph N/A   Overcast
2:35 PM 55.0 °F 46.8 °F 74% 29.80 in 10.0 mi SW 9.2 mph - N/A   Overcast
2:55 PM 55.0 °F 46.8 °F 74% 29.79 in 10.0 mi SW 13.8 mph 20.7 mph N/A   Overcast
3:14 PM 55.4 °F 47.3 °F 74% 29.79 in 10.0 mi SW 11.5 mph 16.1 mph N/A   Overcast
3:35 PM 55.6 °F 47.3 °F 74% 29.79 in 10.0 mi WSW 13.8 mph 17.3 mph N/A   Overcast
3:55 PM 55.4 °F 46.9 °F 73% 29.79 in 10.0 mi SW 11.5 mph 18.4 mph N/A   Overcast
4:14 PM 55.4 °F 47.1 °F 74% 29.79 in 10.0 mi SW 11.5 mph - N/A   Overcast
4:35 PM 55.4 °F 47.3 °F 74% 29.79 in 10.0 mi SW 11.5 mph 16.1 mph N/A   Overcast
4:55 PM 54.5 °F 47.8 °F 78% 29.79 in 7.0 mi SW 12.7 mph 18.4 mph N/A Rain Light Rain
5:14 PM 54.1 °F 48.7 °F 82% 29.79 in 10.0 mi SW 12.7 mph - N/A   Overcast
5:35 PM 54.0 °F 48.6 °F 82% 29.80 in 10.0 mi SW 13.8 mph 18.4 mph N/A   Overcast
5:54 PM 53.8 °F 48.6 °F 82% 29.80 in 10.0 mi SW 15.0 mph 18.4 mph N/A   Overcast
6:15 PM 52.9 °F 48.6 °F 85% 29.81 in 10.0 mi SW 12.7 mph - N/A   Mostly Cloudy
6:35 PM 52.5 °F 48.6 °F 86% 29.81 in 10.0 mi SW 15.0 mph - N/A   Mostly Cloudy
6:54 PM 51.8 °F 48.2 °F 88% 29.81 in 10.0 mi SW 9.2 mph - N/A   Mostly Cloudy
7:15 PM 51.8 °F 48.6 °F 89% 29.82 in 10.0 mi SW 8.1 mph - N/A   Mostly Cloudy
7:35 PM 52.3 °F 48.7 °F 88% 29.82 in 10.0 mi SW 10.4 mph - N/A   Overcast
7:54 PM 52.7 °F 48.6 °F 86% 29.83 in 10.0 mi SW 9.2 mph - N/A   Overcast
8:15 PM 52.7 °F 48.7 °F 86% 29.83 in 10.0 mi SW 9.2 mph - N/A   Overcast
8:34 PM 52.5 °F 48.9 °F 88% 29.84 in 10.0 mi SW 10.4 mph 16.1 mph N/A   Overcast
8:55 PM 52.7 °F 49.1 °F 88% 29.84 in 10.0 mi SW 9.2 mph - N/A   Overcast
9:34 PM 52.7 °F 49.1 °F 88% 29.85 in 10.0 mi SW 6.9 mph - N/A   Overcast
9:55 PM 52.7 °F 49.3 °F 88% 29.85 in 10.0 mi WSW 9.2 mph - N/A   Overcast
10:15 PM 52.7 °F 49.5 °F 89% 29.86 in 10.0 mi SW 8.1 mph - N/A   Overcast
10:34 PM 52.9 °F 49.6 °F 89% 29.86 in 10.0 mi SW 8.1 mph - N/A   Overcast
10:55 PM 52.9 °F 50.0 °F 90% 29.86 in 10.0 mi SW 8.1 mph - N/A   Overcast
11:15 PM 52.9 °F 50.0 °F 90% 29.86 in 7.0 mi WSW 9.2 mph - N/A   Overcast
11:34 PM 52.7 °F 50.2 °F 91% 29.87 in 7.0 mi WSW 8.1 mph - N/A   Overcast
11:55 PM 52.7 °F 50.4 °F 92% 29.87 in 10.0 mi WSW 6.9 mph - N/A   Overcast